DECAYED

STARLINK-1484, 45756 (Decayed)

Orbit data source: Space-Track

STARLINK-1484, 45756 was a payload satellite owned by SpaceX/Seattle (US) in LEO that was launched on Sat, 13 Jun 2020 UTC via an FALCON 9 launch vehicle from the Air Force Eastern Test Range (AFETR). Payload-class satellites include a variety of spacecraft equipped with specific instruments for various scientific and technological missions. These include communications satellites like Starlink; space stations such as the ISS; scientific satellites like the Hubble; Earth observation satellites from companies like Planet Labs, Umbra, and HawkEye 360; GPS; miniature CubeSats for education and research; and military/defense satellites.

Not visible in the next 10 days
Identifier
45756, 2020-038AC
Orbit
Decayed
Country
Flag of USUS
Related business
Manufacturer
SpaceX/Seattle
Mission
Decayed Commercial Communications
Bus & Motor
STARLINK, Unknown motor
Mass
260 kg wet, ~248 kg dry
Launch date (UTC)
2020-06-13 (6 years ago)
Launch vehicle
FALCON 9
Launch site
Air Force Eastern Test Range (AFETR)
Object type
Payload
Rocket body
Debris
Shape & HBR
Box + 1 Pan, 10.1 m
Radar Cross Section
13.562 m², Large (>1 m²)

Expand to show TLE details & history
Last TLE update: 2 months ago

TLE from 2 months ago
0 STARLINK-1484
1 45756U 20038AC  26081.26720677  .10144726  12492-4  26315-3 0  9991
2 45756  52.9856 350.0228 0005610 253.0186 107.0247 16.45536278320734
Epoch: 2026-03-22T06:24Z
TLE epoch observation values (Epoch: 2026-03-22T06:24:46.664Z)
Latitude
-0.00008°
Longitude
74.05229°
Altitude
153.115 km
Speed
7.815 km/s
True Right ascension
23h 20m 05s
True Declination
0° 00' 00"
Sunlit
Object was in daylight at epoch
Visualization orbit readout
Latitude
Unknown
Longitude
Unknown
Altitude
Unknown
Speed
Unknown
Apparent Right ascension
Unknown
Apparent Declination
Unknown
Sunlit
N/A
Visualization observer readout
Local Sidereal Time
03:24:12
Azimuth
Unknown
Elevation
Unknown
Doppler factor
Unknown
Orbital elements
Apogee altitude
155.078 km
Perigee altitude
147.752 km
Semi-major axis
6,529.552 km
Eccentricity
0.00056
Inclination
52.9856°
RAAN
350.0228°
Arg. of periapsis
253.0186°
True anomaly
107.08616°
Mean anomaly
107.0247°
Eccentric anomaly
107.05543°
Mean motion
4.11356 °/min
Orbital period
87.52 mins
BSTAR
0.00026315
Loading maneuver chart data...
Computing Atmospheric mass density...

Documentation

Showing up to 5 results
|